Theta_e
323 326 336 337 339 339 338 338 338 339 340 339 338 336 338 336 336 334 336 334 334 334 334 334 334 333 334 333 333 332 332 331 330 330 328 328 326 326 324 323 322 325 327
323 323 327 331 335 337 339 338 338 338 338 337 338 339 337 337 336 334 335 337 338 336 335 334 335 334 334 333 333 332 331 330 330 328 327 326 326 324 324 324 324 323 326
322 323 323 325 329 332 334 337 336 337 338 333 336 338 336 334 334 334 334 334 336 335 335 335 334 334 334 332 332 331 331 329 328 327 327 326 324 324 325 325 325 325 325
322 322 322 323 325 326 333 334 334 336 336 336 336 336 335 335 334 333 332 333 334 334 329 329 331 331 331 327 328 327 325 323 322 319 323 323 325 323 322 323 324 324 324
320 320 321 322 322 324 326 332 332 334 335 334 334 336 333 333 334 332 329 330 329 326 325 330 328 327 325 320 316 314 313 313 313 313 313 314 324 321 321 321 322 323 322
320 320 320 320 321 322 323 326 328 332 333 332 333 333 332 331 330 329 329 328 326 328 331 325 317 315 314 313 312 312 312 312 312 312 312 312 314 317 320 321 322 322 322
319 319 319 320 320 320 321 323 327 328 330 331 331 331 331 331 330 329 328 329 329 328 323 315 314 313 312 312 312 312 312 312 312 312 312 313 313 317 317 319 319 320 322
318 318 318 319 319 320 320 320 322 325 327 329 329 329 329 328 328 327 328 327 326 317 314 313 312 312 312 312 312 312 311 311 311 311 311 312 311 312 316 317 318 320 320
315 317 317 318 319 320 320 320 319 319 319 323 325 326 326 326 326 325 321 316 314 313 313 312 312 312 312 311 311 311 311 310 310 310 310 310 309 310 313 315 316 316 318
314 314 318 318 319 319 319 318 317 317 316 316 316 317 317 317 316 315 314 313 313 312 312 311 311 311 311 310 310 310 310 309 309 308 308 308 309 309 311 313 315 315 316
311 313 315 318 318 318 318 317 316 316 315 315 315 315 315 316 315 313 312 312 312 312 312 311 311 311 310 310 310 309 309 308 308 308 308 308 308 308 309 310 310 310 311
312 312 312 313 317 318 317 316 316 315 315 315 314 315 319 317 317 318 316 314 312 312 311 311 310 310 310 309 309 308 308 308 307 307 307 307 307 306 307 307 308 308 308
313 312 312 312 312 315 317 316 316 315 315 315 314 314 313 313 313 315 316 315 315 315 312 310 310 309 309 309 308 307 307 307 307 307 306 307 306 305 305 305 306 306 307
313 313 313 313 312 312 314 315 316 315 315 314 314 313 312 311 312 315 317 316 313 311 310 309 309 309 308 307 306 306 306 306 306 306 305 305 304 304 303 304 305 305 305
312 313 313 312 312 312 313 313 314 315 315 314 313 312 311 313 314 313 312 311 310 309 309 308 308 308 307 306 306 306 306 305 304 302 302 302 303 303 304 304 304 304 304
311 312 313 313 312 312 312 313 313 313 313 313 313 312 312 311 311 311 311 310 309 309 308 307 307 306 306 306 305 305 304 302 301 302 302 302 303 303 303 302 302 301 299
311 311 311 312 312 313 313 313 313 312 312 312 311 310 310 310 310 311 311 310 308 307 306 306 305 305 303 302 304 304 301 300 301 300 301 301 296 292 291 290 290 290 289
309 310 310 310 312 312 313 314 313 312 312 311 311 311 311 311 310 310 309 308 307 306 305 304 303 302 300 300 302 301 300 299 299 300 297 291 290 290 290 289 289 290 289
308 308 308 308 310 311 313 314 314 313 312 311 311 311 311 310 310 309 308 307 306 305 304 302 300 300 299 299 300 300 300 300 297 292 289 289 290 290 290 289 290 290 290
310 309 309 309 309 310 311 314 314 314 313 312 311 311 310 310 309 308 307 306 305 304 303 301 300 299 299 299 298 297 292 290 289 288 289 289 290 290 289 289 290 290 290
310 310 308 308 309 309 310 312 314 314 314 312 311 310 309 309 308 306 305 305 304 303 302 300 300 299 298 298 296 291 288 288 288 288 289 289 289 289 288 288 290 290 290
310 309 308 308 310 311 311 310 312 314 314 312 310 309 309 308 307 306 305 304 304 302 300 300 299 299 298 297 291 288 287 288 288 289 288 289 289 289 289 288 289 289 288
310 309 308 308 311 313 313 312 312 313 312 311 309 309 308 307 306 305 304 303 302 302 300 299 299 298 298 297 290 288 287 287 288 288 288 289 289 288 288 288 288 288 288
309 308 308 308 309 310 311 311 311 311 310 309 308 307 306 306 305 303 303 303 302 301 300 299 298 297 297 297 291 288 288 287 287 287 288 288 288 288 288 288 288 288 288
308 309 309 308 308 308 308 308 308 308 308 307 306 306 305 304 303 303 303 302 302 300 299 298 297 297 297 298 293 289 288 288 288 288 287 287 288 288 288 288 288 288 288
308 308 310 310 309 309 310 308 308 307 306 306 305 304 304 303 303 303 303 302 302 300 299 297 296 296 296 296 291 289 288 288 287 288 288 288 288 288 288 287 287 288 288
Wind_Speed
12 12 18 22 23 22 22 26 32 28 24 26 28 29 27 25 23 20 23 16 13 10 9 7 9 8 12 13 14 16 16 17 18 20 21 23 22 24 20 17 16 14 15
16 16 15 16 21 21 20 23 25 23 27 29 35 34 27 28 21 18 21 22 16 15 13 14 15 15 15 17 17 18 20 21 20 21 22 24 21 17 12 8 7 9 12
18 17 19 19 19 22 23 23 23 24 23 20 26 31 24 23 23 23 21 20 18 16 14 16 18 20 19 19 20 22 22 24 23 20 18 12 7 8 8 10 9 7 9
26 22 20 22 23 20 24 25 25 24 25 24 26 28 30 29 27 22 20 19 20 19 15 21 24 25 25 24 22 25 26 25 25 22 21 25 26 17 11 11 13 15 12
25 30 29 25 22 22 22 27 28 28 27 28 29 29 26 23 25 26 25 26 26 27 21 23 25 24 24 23 23 23 23 22 22 20 20 19 17 21 23 20 18 18 18
25 23 26 22 28 26 25 25 26 30 29 29 31 29 27 27 28 26 28 28 26 25 23 23 22 22 22 22 23 22 20 19 19 18 19 19 18 15 13 14 17 18 18
29 27 25 24 24 31 29 28 27 27 28 29 32 29 29 27 27 27 28 28 26 23 23 21 21 20 20 20 20 20 20 21 21 20 21 21 22 20 21 21 21 20 16
27 27 28 26 26 29 33 30 28 27 27 28 32 29 25 25 22 24 25 23 22 20 20 19 19 19 19 19 20 20 20 21 21 21 21 21 22 23 20 20 18 16 22
8 10 20 28 24 29 34 31 29 27 27 26 21 20 19 22 20 21 22 20 18 18 18 18 17 17 18 19 19 19 20 21 20 21 22 22 20 18 16 20 21 24 24
3 7 10 23 24 28 31 30 28 26 26 25 24 22 23 18 22 20 19 18 15 15 16 17 18 19 19 19 19 20 20 20 20 21 21 21 18 17 15 17 17 16 16
3 5 4 8 21 26 28 26 25 24 24 23 23 21 18 21 15 13 12 13 14 17 19 20 19 19 19 20 20 20 20 19 19 20 19 18 17 17 17 18 17 19 19
0 3 6 8 12 19 22 23 23 24 23 22 22 21 28 25 23 24 22 20 17 16 18 19 17 17 19 20 20 20 18 18 18 18 17 16 17 17 17 17 18 19 19
3 5 6 6 10 15 19 20 21 23 22 22 21 21 23 24 23 17 17 19 23 23 21 19 17 18 19 20 20 20 19 18 17 17 18 17 17 16 17 18 20 21 18
9 7 8 8 7 10 16 20 21 22 23 23 24 25 26 22 18 18 21 23 20 18 17 18 19 19 20 19 20 20 19 18 17 17 17 16 15 14 14 14 13 12 12
17 15 13 12 11 12 14 19 22 23 24 25 25 27 25 23 21 17 17 16 15 16 17 19 19 19 19 20 20 19 18 17 15 14 14 14 13 12 11 10 9 9 9
17 18 19 18 18 17 18 20 23 23 24 24 25 25 25 20 17 16 14 13 15 17 18 18 18 18 18 19 17 15 14 12 11 10 10 10 10 7 7 7 7 8 8
14 16 17 19 23 24 23 23 23 22 23 22 21 22 21 19 17 15 15 15 16 17 17 17 17 16 16 15 13 13 11 10 10 10 10 7 7 6 6 8 8 8 8
12 15 17 20 19 18 26 23 22 22 23 22 22 21 21 20 18 17 15 16 16 16 16 16 16 15 14 13 12 10 10 11 11 10 8 8 7 7 6 5 5 5 5
19 21 21 20 19 18 18 24 23 22 23 24 25 24 23 20 18 17 16 16 15 16 15 15 14 12 12 11 10 10 8 9 9 9 8 8 7 6 5 6 6 5 5
19 20 20 19 18 17 17 25 25 26 24 25 25 23 22 20 18 16 16 16 15 15 16 14 13 12 11 11 10 9 9 9 9 9 9 7 7 6 5 6 6 6 5
17 18 17 17 18 17 20 25 30 28 24 22 21 22 22 19 17 16 16 16 15 15 15 14 13 13 12 11 11 10 10 9 9 9 8 7 7 6 6 7 7 7 6
16 15 13 12 13 15 20 26 30 28 24 20 20 21 20 19 18 17 16 16 14 14 14 13 14 13 12 13 12 11 10 11 10 9 8 8 7 7 6 7 8 8 8
13 11 9 8 7 6 6 14 24 28 23 21 19 19 19 18 17 16 15 15 14 13 12 14 14 14 14 15 14 12 11 10 10 10 9 10 9 9 8 8 9 9 9
12 8 5 6 9 8 8 9 13 16 16 16 17 18 18 17 16 16 15 16 14 12 13 15 15 14 15 16 16 15 14 12 11 10 10 10 11 11 11 11 10 10 10
12 8 6 5 4 5 8 10 12 13 14 14 15 16 16 16 15 15 15 14 13 12 12 13 14 15 17 15 15 15 15 13 12 13 14 15 13 13 12 12 12 12 12
16 13 10 7 6 6 5 7 10 11 12 14 15 16 15 15 15 15 14 14 13 12 12 13 15 15 15 15 17 16 15 15 15 19 19 17 17 17 15 15 14 15 14
Wind_Direction
189 194 204 207 203 211 212 212 222 221 214 206 212 218 214 213 221 226 234 225 229 232 238 255 261 256 253 258 265 272 274 280 284 285 291 284 288 291 295 286 283 269 267
207 200 206 214 217 214 212 211 210 210 215 221 222 222 217 217 218 207 206 221 217 228 234 245 253 254 256 263 264 266 270 271 274 281 288 294 298 298 280 272 288 289 262
219 218 216 219 222 223 224 218 216 215 214 218 209 211 212 215 216 219 223 223 218 220 241 249 259 258 261 262 262 266 269 272 272 267 270 287 274 307 270 288 303 258 245
233 232 229 223 217 224 226 227 223 220 219 214 208 216 209 210 214 214 225 227 233 230 237 259 258 255 259 265 266 269 271 272 275 276 261 258 260 275 281 280 261 256 253
236 241 237 232 232 224 223 229 229 224 222 219 222 219 217 217 213 216 220 227 230 241 251 249 255 257 262 267 270 271 273 274 274 274 273 268 259 257 259 267 259 266 261
242 242 243 248 238 233 227 229 235 233 225 225 228 225 227 221 221 222 223 226 232 239 244 249 257 262 267 271 273 273 273 273 273 272 270 269 264 262 251 255 258 267 259
239 242 239 233 233 229 226 228 231 237 235 234 234 231 231 230 231 233 230 229 232 238 248 258 265 270 273 274 274 275 275 274 274 272 269 266 268 257 260 259 256 260 252
241 245 247 248 241 233 229 228 230 233 239 241 237 228 227 237 230 237 239 237 239 244 251 264 269 272 274 274 275 275 275 275 274 271 268 267 268 259 253 255 255 258 244
242 259 250 241 241 230 227 227 229 233 234 235 231 222 224 222 233 232 232 233 238 246 258 262 266 271 271 272 274 276 276 275 273 271 270 273 273 265 257 253 254 254 257
258 273 267 234 234 225 224 226 229 231 228 224 217 211 218 218 220 228 234 237 252 259 264 268 270 273 275 275 277 277 276 276 274 273 273 273 265 261 252 253 247 251 255
284 271 277 236 228 225 225 231 234 233 230 225 219 211 215 215 232 247 266 273 282 281 275 273 273 276 279 282 280 280 278 276 276 275 276 269 262 260 253 250 251 251 252
1 289 278 251 232 229 230 228 230 231 229 226 221 214 222 233 238 245 245 254 257 261 266 270 282 283 283 281 281 278 276 276 275 276 277 270 264 260 254 251 250 248 246
299 310 295 269 240 233 235 235 235 233 227 221 219 214 208 205 205 214 255 272 270 279 273 275 280 277 278 279 277 276 274 272 271 272 272 272 266 262 252 250 252 254 245
271 275 282 284 262 243 241 245 244 239 233 228 223 221 217 205 219 243 252 262 262 263 270 274 275 278 278 277 274 272 271 268 266 263 263 267 267 264 259 251 241 239 234
262 253 259 264 267 264 253 248 244 242 238 235 231 226 215 249 250 245 243 247 255 264 268 271 273 276 279 279 273 270 268 269 270 270 269 265 262 255 254 241 224 226 227
262 263 260 259 258 268 269 259 246 238 236 234 231 231 236 227 226 232 242 258 265 270 273 274 277 282 285 282 272 262 260 260 262 266 263 263 261 245 231 220 219 223 232
273 272 272 272 270 263 260 256 249 238 230 224 220 219 220 223 230 241 250 256 263 267 270 274 278 283 281 283 263 254 249 244 249 252 249 228 235 239 234 237 236 236 235
296 287 285 275 266 268 257 251 245 233 226 223 221 223 224 227 236 245 252 257 263 269 270 272 275 281 283 283 256 246 235 236 235 225 230 236 231 238 233 232 228 218 212
304 298 293 285 267 259 254 239 234 231 229 228 227 226 226 231 238 247 253 261 267 267 264 268 279 277 275 278 249 237 233 226 220 225 233 236 232 235 236 228 227 220 210
303 296 291 278 266 252 248 235 232 229 228 228 229 231 231 235 242 248 257 267 275 267 266 273 276 274 269 263 241 229 222 223 230 232 230 227 230 236 233 215 214 217 210
302 301 297 282 266 254 242 236 233 233 235 231 230 231 232 234 242 248 256 265 271 266 269 271 261 257 255 250 235 226 223 225 229 233 232 230 234 237 229 218 214 216 219
297 299 297 289 282 264 243 235 233 231 230 227 229 230 230 233 239 247 252 263 265 267 270 257 250 249 248 238 229 230 229 228 228 229 231 235 236 237 238 224 226 230 230
283 289 289 274 276 273 234 231 228 222 217 221 226 230 231 234 239 244 254 263 266 269 263 251 248 245 241 233 227 229 229 229 227 228 228 231 237 239 241 234 231 234 232
263 260 257 249 235 217 195 190 204 213 224 226 225 228 232 237 241 246 256 261 264 266 260 252 249 243 237 230 224 225 227 228 228 235 237 239 241 241 240 240 241 243 242
237 224 226 209 200 198 200 200 203 206 212 218 225 230 234 240 245 253 258 260 262 261 260 259 252 243 239 231 229 231 233 235 239 242 241 241 245 247 248 247 247 248 251
235 225 223 229 225 191 212 216 209 220 225 229 232 234 236 242 245 251 255 259 260 251 251 251 245 237 235 222 222 227 233 236 239 248 250 253 253 254 252 251 252 253 252